Terug naar catalogus

SL-8 DEB

ActiefLEO
NORAD 21406·DEBRIS·🇷🇺 Russia

Gelanceerd Feb 12, 1991 vanaf Plesetsk Cosmodrome

Loading…

Volgende Passages (komende 24 uur)

TLE

VersSource: Space-Track

Epoch: Sep 14, 2026, 04:11 UTC

1 21406U 91009BV  26257.17476166  .00000120  00000-0  10990-2 0  9996
2 21406  73.9161 326.6907 0136620 282.9746  89.3117 12.31854878591585

Volg SL-8 DEB in realtime met AllMySat

Download on the App Store